Location: Oshawa
(43.9000°N, 78.8670°W)
Time: 04:02:20
(UTC-04:00)

Cosmos 1707 Rocket - Visible Passes

Search period start: 24 May 2016 00:00
Search period end: 03 June 2016 00:00
Orbit: 606 x 632 km, 82.5° (Epoch: 23 May)

Date Brightness Start Highest point End Pass type
(mag) Time Alt. Az. Time Alt. Az. Time Alt. Az.
24 May 5.3 02:05:58 10° NNE 02:09:39 26° ENE 02:11:21 20° ESE visible
24 May 4.6 03:43:44 10° NNW 03:47:28 28° W 03:48:28 25° WSW visible
25 May 4.3 02:22:52 10° N 02:27:06 46° ENE 02:28:17 36° ESE visible
25 May 5.3 04:01:53 10° NW 04:04:32 16° W 04:05:24 15° W visible
26 May 3.4 02:40:02 10° N 02:44:26 87° E 02:45:14 59° SSE visible
27 May 5.9 01:20:49 10° NNE 01:23:29 16° ENE 01:25:04 13° E visible
27 May 3.8 02:57:26 10° NNW 03:01:40 49° W 03:02:12 46° WSW visible
28 May 5.1 01:37:16 10° NNE 01:41:01 27° ENE 01:42:03 24° E visible
28 May 4.7 03:15:08 10° NNW 03:18:48 27° W 03:19:12 26° W visible
29 May 4.1 01:54:12 10° N 01:58:27 48° ENE 01:59:05 44° ESE visible
29 May 5.4 03:33:21 10° NW 03:35:51 15° W 03:36:13 15° W visible
30 May 3.3 02:11:23 10° N 02:15:46 89° W 02:16:06 76° S visible
31 May 5.7 00:52:05 10° NNE 00:54:50 16° ENE 00:56:00 15° E visible
31 May 3.9 02:28:49 10° NNW 02:33:00 47° W 02:33:09 47° W visible
01 Jun 4.9 01:08:35 10° NNE 01:12:22 28° ENE 01:13:04 27° E visible
01 Jun 4.8 02:46:32 10° NNW 02:50:07 26° W 02:50:12 26° W visible
02 Jun 4.0 01:25:32 10° N 01:29:47 51° ENE 01:30:08 49° E visible
02 Jun 5.6 03:04:49 10° NW 03:07:10 14° W 03:07:16 14° W visible
